Temp
12 12 12 12 12 12 11 11 11 11 11 11 11 11 11 10 10 10 10 10 10 10 10 9 9 9 9 9 9 9 9 9 9 9 9 8 8 8 8 8 8 7 7
12 12 12 12 12 12 11 11 11 11 11 11 11 11 10 10 10 10 10 10 10 10 9 9 9 9 9 9 9 9 9 9 8 8 8 8 8 8 8 7 8 7 7
12 12 11 12 12 12 12 11 11 11 11 10 10 10 10 10 10 10 10 10 10 10 9 9 9 9 9 8 8 8 8 8 8 8 8 8 8 8 7 7 7 7 7
12 12 12 12 12 12 11 11 11 11 11 11 10 10 10 10 10 10 10 10 10 9 9 9 9 8 8 8 8 8 8 8 8 8 8 8 8 7 7 7 7 7 7
12 12 11 11 12 11 11 11 11 11 11 11 11 10 10 10 10 10 10 10 10 9 9 9 9 8 8 8 8 8 8 8 8 8 7 8 8 7 7 7 7 7 6
12 12 11 11 11 11 11 11 11 11 11 11 11 11 10 10 10 10 10 10 9 9 9 9 9 8 8 8 8 8 8 8 8 8 7 7 7 7 7 7 7 7 7
12 12 12 11 11 11 11 11 11 10 10 10 10 10 10 10 10 9 9 9 9 9 9 9 9 8 8 8 7 7 8 8 8 8 7 7 7 7 7 7 7 7 7
12 12 11 11 11 11 11 11 11 11 10 10 10 10 10 10 9 9 9 9 9 9 8 8 8 8 7 7 7 7 7 8 8 7 7 7 7 7 7 6 6 6 6
11 11 11 11 11 11 11 11 11 11 10 10 10 10 10 9 9 9 9 9 9 8 8 7 7 7 7 7 7 7 7 7 7 7 7 7 7 7 7 6 6 6 6
11 11 11 10 10 10 10 10 10 10 10 10 10 10 10 9 9 9 9 9 9 9 8 8 7 7 7 6 6 6 6 6 7 7 7 7 7 6 6 6 6 6 6
11 11 11 10 10 10 10 10 10 10 10 10 10 9 9 9 9 9 9 9 9 8 8 8 7 7 7 7 6 6 6 6 6 6 6 6 6 6 6 6 6 6 6
11 11 11 11 10 10 10 10 10 10 10 9 9 9 9 9 9 9 8 8 8 8 8 8 8 8 8 7 7 6 6 5 5 5 6 6 6 6 6 6 6 6 6
11 11 11 10 10 10 9 9 10 9 9 9 9 9 9 9 8 8 8 8 8 8 8 8 8 8 7 7 7 6 6 5 5 5 6 5 6 6 6 6 6 6 6
10 10 10 10 10 9 10 9 9 9 9 9 9 9 9 9 9 8 8 8 8 8 8 8 8 7 7 7 7 6 6 5 5 4 5 6 5 6 6 5 6 5 5
10 10 9 9 9 9 9 9 9 9 8 9 9 9 9 9 8 8 8 8 8 8 8 8 7 7 7 7 7 7 6 6 5 4 4 5 5 5 5 6 5 5 5
9 9 9 9 9 9 9 8 8 8 8 8 8 8 8 8 8 8 7 7 8 7 7 7 7 7 6 6 6 6 6 6 5 5 5 4 4 5 5 5 5 5 5
9 9 9 9 9 8 8 8 8 8 8 8 7 7 7 7 7 6 6 6 6 6 7 7 7 7 6 6 6 6 6 6 5 5 5 5 4 4 5 5 5 5 5
9 9 9 8 8 8 8 8 8 7 7 6 7 6 6 6 6 6 6 6 6 6 6 6 6 6 6 6 6 5 6 6 6 5 5 5 5 4 4 5 5 5 4
9 9 8 8 7 7 7 7 6 6 6 6 6 6 6 5 5 6 6 6 6 5 5 5 5 6 6 6 6 5 5 5 6 5 5 5 5 5 4 4 4 4 3
9 9 8 8 8 7 7 6 6 6 6 5 5 5 5 5 5 5 5 5 5 5 5 4 4 4 5 5 6 5 5 5 5 5 5 5 5 4 4 4 3 4 4
8 8 8 8 7 7 6 5 5 5 5 5 5 5 5 5 5 5 5 5 5 5 5 5 5 4 4 4 5 5 5 5 5 5 4 5 5 5 5 5 3 3 3
8 8 8 7 7 7 6 6 6 6 5 5 5 5 5 5 4 4 4 4 4 5 5 4 4 4 3 3 5 4 4 5 5 4 4 4 5 5 4 5 3 3 3
8 8 7 6 6 6 6 5 5 4 4 5 4 4 4 4 4 3 3 3 3 3 2 2 2 1 1 3 4 3 4 4 4 5 5 4 4 3 3 4 3 2 2
7 7 6 6 5 4 4 4 3 3 5 5 4 4 4 3 3 2 2 2 3 2 1 1 1 0 0 1 1 2 4 3 3 2 3 3 4 4 3 3 1 3 2
6 6 5 4 4 4 4 2 3 3 3 3 3 3 3 2 2 1 1 0 -0 -0 -0 -1 -2 -1 -1 -0 0 1 3 3 3 3 3 2 3 3 4 3 2 2 1
5 4 4 4 4 3 2 2 2 2 2 2 2 2 1 0 -1 -2 -2 -3 -3 -4 -4 -4 -5 -5 -3 -2 -1 -1 -1 1 2 2 2 1 2 2 3 2 2 1 1
Height
3184 3184 3184 3185 3186 3187 3188 3189 3190 3190 3190 3190 3191 3192 3192 3192 3192 3193 3192 3192 3192 3192 3192 3193 3193 3193 3192 3192 3191 3191 3190 3190 3190 3189 3188 3186 3186 3186 3185 3186 3185 3183 3182
3184 3184 3185 3185 3186 3187 3188 3189 3190 3191 3190 3191 3191 3192 3192 3192 3192 3193 3193 3193 3193 3193 3194 3194 3193 3193 3192 3191 3191 3192 3191 3190 3189 3188 3187 3187 3188 3188 3187 3186 3186 3185 3183
3184 3184 3185 3186 3186 3187 3188 3190 3191 3191 3192 3192 3191 3191 3191 3191 3192 3193 3193 3193 3193 3193 3193 3193 3192 3192 3192 3191 3191 3191 3191 3190 3189 3189 3189 3188 3189 3188 3188 3186 3186 3185 3184
3183 3184 3184 3186 3186 3188 3189 3190 3190 3191 3191 3192 3192 3191 3191 3190 3191 3191 3191 3192 3192 3192 3192 3192 3192 3191 3191 3190 3190 3190 3190 3191 3191 3191 3190 3190 3189 3188 3187 3187 3185 3185 3184
3183 3183 3183 3185 3187 3188 3189 3190 3190 3190 3190 3190 3190 3190 3190 3189 3189 3189 3190 3190 3191 3191 3191 3190 3190 3190 3189 3188 3187 3188 3189 3190 3191 3191 3190 3190 3188 3188 3187 3186 3186 3184 3184
3183 3183 3184 3185 3187 3188 3189 3189 3190 3190 3190 3190 3189 3189 3188 3188 3188 3188 3188 3188 3189 3189 3189 3188 3188 3188 3188 3186 3185 3186 3187 3188 3190 3190 3189 3188 3187 3186 3186 3185 3185 3184 3184
3183 3183 3184 3185 3186 3187 3188 3189 3189 3189 3189 3189 3188 3188 3187 3187 3186 3186 3185 3186 3186 3186 3186 3186 3186 3186 3186 3185 3183 3183 3184 3184 3186 3187 3187 3186 3186 3185 3185 3185 3184 3184 3183
3183 3183 3184 3185 3186 3186 3187 3187 3187 3188 3187 3187 3186 3186 3185 3185 3185 3184 3184 3184 3184 3184 3184 3184 3184 3184 3184 3184 3182 3181 3181 3182 3183 3184 3185 3185 3184 3184 3183 3183 3183 3183 3182
3184 3184 3184 3185 3186 3187 3187 3187 3186 3186 3185 3184 3184 3184 3183 3183 3182 3182 3182 3182 3182 3181 3181 3181 3181 3182 3182 3182 3180 3179 3178 3179 3180 3181 3183 3182 3182 3182 3182 3182 3181 3182 3181
3180 3180 3181 3182 3182 3183 3184 3184 3184 3183 3182 3181 3181 3181 3181 3180 3180 3179 3179 3178 3178 3179 3179 3179 3178 3179 3179 3179 3178 3177 3175 3175 3176 3177 3179 3179 3179 3179 3180 3179 3180 3180 3180
3176 3176 3177 3177 3177 3177 3178 3178 3178 3179 3179 3179 3178 3178 3177 3177 3177 3177 3177 3177 3177 3177 3176 3176 3176 3176 3176 3176 3176 3174 3173 3172 3173 3174 3176 3177 3177 3178 3177 3178 3178 3178 3178
3173 3175 3175 3176 3176 3175 3175 3175 3175 3174 3174 3174 3174 3173 3173 3173 3173 3172 3172 3173 3173 3173 3173 3173 3173 3172 3172 3173 3172 3171 3171 3170 3169 3170 3172 3173 3173 3175 3175 3176 3176 3176 3176
3170 3171 3170 3171 3171 3169 3171 3171 3171 3169 3170 3169 3169 3168 3167 3167 3168 3168 3168 3168 3168 3168 3167 3166 3167 3167 3167 3168 3169 3168 3167 3166 3166 3165 3167 3168 3168 3170 3171 3172 3174 3175 3174
3165 3164 3165 3165 3166 3166 3167 3166 3166 3165 3164 3163 3163 3161 3161 3162 3162 3161 3162 3162 3161 3162 3161 3160 3161 3161 3162 3162 3161 3162 3162 3161 3162 3160 3162 3163 3164 3164 3166 3168 3170 3171 3171
3162 3160 3160 3161 3160 3159 3157 3157 3158 3157 3156 3157 3156 3154 3154 3155 3155 3154 3155 3155 3155 3154 3153 3153 3153 3153 3154 3155 3155 3155 3156 3156 3155 3154 3155 3157 3159 3159 3161 3163 3165 3166 3168
3160 3159 3157 3155 3155 3154 3154 3153 3153 3151 3150 3149 3148 3147 3148 3147 3146 3146 3146 3146 3147 3145 3145 3145 3146 3145 3146 3146 3147 3147 3149 3150 3149 3148 3147 3148 3151 3152 3155 3157 3160 3161 3162
3156 3155 3154 3152 3150 3148 3146 3145 3144 3143 3143 3142 3141 3140 3139 3140 3139 3138 3137 3136 3137 3136 3135 3136 3136 3135 3136 3136 3137 3139 3141 3141 3140 3139 3139 3140 3141 3144 3147 3149 3153 3155 3156
3154 3152 3148 3145 3142 3141 3139 3138 3137 3135 3134 3134 3132 3131 3131 3130 3130 3129 3127 3127 3127 3126 3125 3124 3124 3125 3125 3126 3127 3128 3129 3132 3132 3131 3131 3132 3132 3135 3138 3141 3144 3147 3150
3150 3148 3144 3140 3138 3137 3135 3134 3133 3132 3130 3128 3127 3126 3125 3123 3121 3120 3119 3118 3116 3115 3114 3114 3113 3113 3113 3115 3116 3118 3118 3119 3120 3121 3120 3121 3123 3125 3127 3132 3135 3138 3141
3143 3142 3139 3137 3135 3132 3133 3133 3132 3130 3128 3126 3123 3122 3120 3117 3115 3113 3110 3108 3107 3105 3103 3102 3101 3101 3099 3100 3104 3104 3105 3106 3106 3107 3107 3109 3112 3114 3117 3119 3124 3126 3131
3135 3134 3133 3132 3131 3132 3132 3130 3128 3126 3122 3118 3115 3112 3109 3106 3104 3101 3099 3098 3096 3092 3091 3091 3090 3089 3087 3088 3089 3088 3089 3090 3090 3091 3092 3092 3095 3099 3104 3106 3109 3114 3119
3127 3126 3124 3123 3122 3123 3123 3120 3118 3117 3114 3110 3106 3103 3099 3095 3091 3088 3085 3083 3081 3077 3076 3075 3074 3072 3072 3075 3076 3075 3070 3073 3073 3074 3079 3079 3081 3086 3090 3094 3096 3100 3106
3122 3121 3118 3117 3116 3115 3114 3112 3109 3106 3103 3098 3092 3087 3084 3080 3076 3071 3067 3064 3061 3061 3059 3058 3058 3057 3057 3061 3058 3056 3053 3048 3053 3062 3063 3065 3066 3069 3077 3081 3084 3088 3092
3115 3115 3113 3110 3108 3107 3105 3103 3097 3091 3087 3083 3077 3074 3070 3066 3061 3057 3052 3048 3044 3040 3039 3040 3040 3040 3041 3042 3042 3047 3042 3040 3028 3036 3046 3045 3046 3050 3059 3061 3063 3073 3081
3108 3109 3107 3106 3103 3100 3095 3090 3085 3079 3073 3066 3062 3057 3053 3048 3045 3042 3036 3031 3028 3025 3022 3020 3021 3023 3025 3025 3025 3025 3026 3023 3017 3021 3013 3034 3029 3034 3039 3046 3050 3059 3065
3101 3098 3096 3097 3097 3093 3087 3080 3075 3068 3060 3053 3047 3042 3038 3033 3029 3025 3022 3020 3015 3012 3009 3007 3008 3008 3010 3009 3010 3005 3006 3007 3010 3008 3011 3014 3019 3025 3026 3030 3037 3045 3051
Wind_Speed
5 4 6 6 6 4 6 7 7 7 7 8 9 9 9 9 9 8 8 7 7 5 5 5 4 4 4 4 4 5 7 7 8 9 11 12 12 11 11 11 9 8 7
2 3 6 6 4 4 3 4 6 8 8 7 8 8 8 8 8 7 6 4 4 4 3 2 2 2 1 1 2 3 4 4 5 7 8 9 8 8 9 9 10 7 7
3 5 4 4 4 5 5 2 3 5 6 7 8 8 8 7 7 6 6 5 5 4 4 3 3 2 2 2 2 2 2 3 4 4 3 3 4 6 8 9 9 9 6
3 3 5 3 3 4 2 1 0 2 3 4 5 5 6 5 6 7 6 6 5 5 5 5 5 4 4 5 5 5 5 4 5 5 4 4 4 5 6 9 8 9 7
5 6 8 8 6 2 1 1 2 5 5 5 5 5 6 6 7 7 7 8 8 7 6 6 6 7 7 8 8 8 8 6 5 6 7 6 6 4 6 8 10 9 8
8 6 7 6 3 2 2 3 3 5 5 5 6 7 8 8 9 9 10 10 10 10 10 9 9 8 9 10 12 12 10 10 8 5 7 8 6 4 5 6 8 9 9
5 5 6 5 5 3 3 3 4 5 6 5 7 7 8 10 10 11 11 12 13 13 13 12 11 11 11 12 14 13 12 13 11 8 8 9 8 7 6 6 5 8 9
2 3 3 4 4 4 5 4 4 5 7 8 9 10 10 10 11 13 13 14 14 13 12 13 13 13 12 13 15 14 15 15 14 11 11 10 9 9 9 8 8 7 8
0 1 3 4 5 6 6 7 8 8 9 9 10 12 14 14 15 15 16 16 16 15 15 15 15 15 14 15 16 17 18 17 17 15 12 13 12 11 11 9 9 8 8
8 8 11 11 11 11 11 11 12 14 14 14 14 15 16 17 17 18 19 19 19 17 16 16 17 17 17 16 17 19 20 20 19 17 14 14 14 15 14 12 12 11 9
14 16 17 17 17 16 15 16 17 18 18 19 19 19 19 20 19 19 20 21 21 19 18 19 19 20 19 19 20 21 22 23 22 20 17 15 16 17 16 15 14 13 11
19 18 17 17 19 19 16 17 20 22 22 23 23 23 24 24 24 24 23 22 22 22 23 22 22 23 23 21 22 23 24 24 25 24 20 19 20 18 18 17 17 16 14
19 20 20 19 19 21 19 19 19 19 19 24 28 28 28 28 28 28 27 27 27 26 26 27 26 27 26 25 24 24 25 27 27 27 24 23 22 22 21 19 20 19 18
25 25 23 24 23 25 26 23 21 21 21 20 23 28 29 29 30 31 31 31 31 31 31 31 30 30 29 30 29 28 28 30 30 32 29 27 26 26 25 22 22 22 21
27 27 26 26 28 30 31 29 27 27 25 26 24 24 26 27 29 31 32 33 34 35 36 35 35 34 32 33 33 32 29 30 33 34 34 32 29 30 28 26 24 24 25
20 23 27 27 27 28 28 28 29 31 30 30 31 30 26 27 26 27 30 31 32 35 36 37 37 36 35 34 36 34 32 31 34 36 38 37 34 33 30 28 28 25 25
18 19 23 26 27 28 30 31 31 32 33 33 35 32 31 30 30 31 32 33 35 37 38 39 38 39 40 39 39 38 35 36 41 39 40 40 39 37 34 33 29 28 27
23 25 27 27 29 28 28 30 31 30 29 30 31 30 31 32 34 35 38 39 38 40 41 43 45 45 44 44 43 41 43 43 44 43 42 42 43 40 38 35 35 30 31
29 25 26 28 22 22 22 21 22 24 25 25 26 27 29 31 33 35 37 41 45 46 45 45 47 50 50 49 48 46 47 46 48 48 47 46 45 45 41 39 37 33 33
29 26 27 18 16 14 13 17 18 19 21 23 26 27 29 31 33 34 35 35 37 42 45 48 50 49 53 53 51 50 51 50 50 52 51 50 49 49 46 44 40 37 34
28 23 23 21 16 17 18 20 23 27 28 31 34 37 39 40 42 43 44 44 43 43 43 45 49 52 57 56 56 54 55 56 57 58 58 57 54 54 51 50 47 43 38
28 25 25 22 22 22 26 33 37 37 38 41 45 47 49 50 49 51 51 52 53 54 51 50 50 51 52 51 53 56 60 62 65 62 60 61 60 59 57 55 52 49 45
30 27 25 24 23 26 31 38 47 46 47 48 49 50 53 55 57 60 62 62 63 61 59 55 53 53 48 41 34 62 63 73 66 65 64 65 58 64 65 61 60 50 48
28 25 24 29 30 34 43 51 49 53 54 47 47 48 50 55 61 65 70 73 71 71 68 62 59 57 55 59 58 58 49 66 64 63 64 58 59 59 59 65 63 55 48
30 26 28 30 38 50 48 48 53 47 46 47 47 48 48 49 50 51 53 56 58 65 68 63 55 54 53 56 67 60 47 49 49 49 68 60 55 54 67 56 56 56 47
27 30 35 42 49 47 50 45 41 43 46 47 45 45 44 43 41 40 44 43 47 48 47 50 47 41 39 46 60 63 59 46 54 56 36 49 61 55 59 60 51 58 57
Wind_Direction
122 133 117 115 86 70 142 164 170 166 173 164 157 152 146 139 131 127 124 124 122 122 120 114 103 101 91 81 70 57 59 51 46 45 43 48 46 38 39 27 21 30 37
185 117 133 125 79 69 115 173 188 189 183 179 176 177 169 162 159 154 149 152 158 164 163 152 151 109 104 72 35 38 43 35 31 38 39 42 47 33 24 34 13 12 17
225 183 136 116 103 88 66 58 179 200 207 197 191 183 183 186 184 184 190 194 199 204 204 210 211 211 224 253 282 305 316 350 1 19 20 35 32 30 19 23 19 2 10
113 150 183 192 112 88 354 357 160 187 216 220 214 208 208 201 203 210 214 221 224 224 225 229 234 236 244 254 264 271 286 305 321 332 330 324 336 6 17 8 16 4 356
71 102 102 114 121 95 154 218 258 259 245 230 229 237 234 228 228 228 232 238 241 242 242 239 236 234 239 250 255 258 267 279 297 310 300 305 300 336 357 3 358 11 351
72 96 114 125 135 161 222 263 281 286 283 272 259 250 248 243 238 240 241 245 247 250 248 244 242 242 242 246 253 259 267 274 268 267 285 291 285 310 333 345 350 357 354
74 111 131 147 160 185 220 243 260 268 267 268 272 270 266 259 253 244 243 247 250 248 249 250 245 244 245 248 255 261 263 270 274 271 272 282 291 293 303 316 327 341 350
81 118 160 174 188 205 223 230 242 264 265 265 262 264 258 257 258 259 257 257 254 250 249 248 247 246 248 255 261 265 267 270 273 274 278 278 281 283 284 294 303 323 338
116 266 245 246 244 243 252 255 258 257 256 260 266 268 268 262 256 256 257 258 258 254 251 251 253 251 250 252 261 267 268 272 276 275 271 277 276 276 274 278 286 296 317
196 201 210 228 241 250 257 262 265 266 265 261 263 263 264 263 263 265 262 259 258 262 265 262 258 256 255 254 260 267 270 271 276 276 275 274 276 273 267 264 273 277 293
220 225 223 222 228 236 242 250 258 263 268 269 266 265 263 265 266 265 267 268 270 270 267 266 265 265 262 260 261 264 268 274 274 275 276 274 273 270 267 264 262 268 277
266 254 249 252 256 260 264 269 273 269 267 267 265 263 263 262 262 260 262 265 267 268 268 266 266 266 266 266 265 265 268 270 273 274 273 272 271 270 269 263 259 259 264
287 286 265 259 263 268 272 277 276 278 282 282 271 267 262 259 260 263 264 265 265 265 264 266 265 264 267 268 264 264 265 266 267 270 272 271 269 268 267 262 260 255 256
282 276 262 265 262 270 274 277 275 274 276 279 280 268 262 263 263 264 264 264 264 264 264 263 262 262 262 263 263 261 259 263 265 268 268 269 270 266 262 263 257 254 251
269 271 271 269 271 276 281 286 286 287 284 287 283 280 264 262 264 266 268 267 267 266 265 264 263 260 259 259 258 260 258 258 262 265 267 265 265 267 265 260 259 256 254
274 270 271 274 275 277 277 277 278 279 282 284 286 285 280 272 265 264 266 266 266 266 266 266 266 263 259 257 254 255 259 260 259 261 264 264 262 265 265 263 261 257 256
296 295 290 282 276 271 270 270 270 271 273 273 276 271 268 266 267 264 261 259 258 259 260 259 260 261 261 257 255 254 252 251 258 258 260 264 262 262 262 263 258 254 256
282 298 302 287 272 266 263 262 263 263 261 263 265 269 268 268 265 261 261 261 261 263 264 262 261 259 259 260 257 254 251 252 253 258 259 260 262 261 260 259 260 253 251
285 298 304 300 285 277 273 271 270 267 268 270 271 273 275 273 272 271 266 259 257 259 262 264 263 261 260 259 258 256 256 254 254 255 255 256 259 262 259 259 255 253 247
282 296 309 302 295 289 300 304 294 288 285 283 284 282 281 279 277 274 273 272 267 262 258 255 259 260 262 261 258 256 255 253 252 251 252 253 254 256 258 256 250 249 248
277 288 295 295 290 288 304 316 302 292 284 282 282 281 280 279 277 276 274 267 264 267 265 263 259 259 261 260 261 259 254 252 250 250 248 249 250 251 251 255 250 249 245
274 284 280 286 289 293 289 297 305 297 294 290 288 287 284 283 280 274 272 267 266 265 263 260 258 254 253 258 257 262 256 259 252 248 250 252 251 248 244 249 249 247 246
273 275 273 286 293 299 301 300 304 298 298 293 285 280 278 279 278 275 273 273 269 266 264 264 263 260 250 243 259 255 256 256 249 257 248 249 253 249 245 247 247 245 242
272 276 281 293 308 311 307 305 300 297 298 293 288 283 279 275 273 272 271 274 273 272 272 269 267 264 259 248 248 244 250 250 227 252 263 257 245 241 257 239 239 233 242
279 286 292 305 315 313 309 305 302 300 299 299 296 292 287 283 280 277 275 274 273 272 273 275 273 268 264 257 248 247 237 249 245 249 233 256 238 260 257 249 225 253 239
285 295 309 315 309 309 307 304 304 306 306 305 302 296 292 287 284 283 282 283 280 278 280 278 271 264 264 259 252 261 249 255 245 241 246 248 240 256 231 229 235 241 236